[[{"header":{"parameterUnit":"m.s-1","parameterCategory":1,"la1":30.2991,"la2":30.254,"lo1":-89.0895,"lo2":-89.0444,"dy":0.0017,"dx":0.0017,"nx":28,"ny":28,"refTime":"2025-06-13T09:00:00:Z","depth":0,"parameterNumber":2,"parameterNumberName":"U-component_of_WINDS"},"data":[0,0,0,0,0,0,0,0,0,0,0,0,0,0,0,0,0,0,0,0,0,0,0,0,0,0,0,0,0,0,0,0,0,0,0,0,0,0,0,0,0,0,0,0,0,0,0,0,0,0,0,0,0,0,0,0,0,0,1.5981,1.5983,0,1.6178,1.618,1.6182,1.6232,1.6231,1.623,1.6229,1.6429,1.6436,1.6442,0,0,0,0,0,0,0,0,0,0,0,0,0,1.5644,1.565,1.5981,1.5983,1.5986,1.6178,1.618,1.6183,1.6233,1.6231,1.623,1.6228,1.6427,1.6435,1.6443,0,0,0,0,0,0,0,0,0,0,0,0,0,1.5811,1.5652,1.598,1.6034,1.604,1.6177,1.618,1.6184,1.6233,1.6231,1.6229,1.6228,1.6425,1.6434,1.6444,1.6541,0,0,1.6473,1.6478,0,0,0,0,0,0,0,0,1.5801,1.5823,1.6023,1.603,1.6038,1.6179,1.6135,1.6303,1.6233,1.616,1.6229,1.6227,1.6347,1.6363,1.6404,1.655,1.6559,1.6474,1.648,1.6484,1.6487,0,0,0,0,0,0,0,1.579,1.5815,1.6059,1.6026,1.6035,1.6047,1.6068,1.6167,1.6261,1.6166,1.617,1.6193,1.6351,1.6395,1.6409,1.6562,1.6474,1.6483,1.6489,1.6492,1.6797,1.6799,0,0,0,0,0,0,1.5769,1.5805,1.6052,1.6065,1.5913,1.6054,1.6079,1.6135,1.6261,1.6278,1.6194,1.6195,1.6379,1.6398,1.6417,1.6539,1.6484,1.6493,1.6499,1.6795,1.6797,1.68,0,0,0,0,0,0,1.5762,1.5791,1.6045,1.5936,1.5969,1.6062,1.6126,1.614,1.6184,1.6282,1.6299,1.6222,1.6378,1.6403,1.651,1.6546,1.6498,1.6507,1.6792,1.6796,1.6799,1.6783,0,0,0,0,0,0,1.5752,1.5788,1.5827,1.5937,1.5975,1.6135,1.6128,1.6145,1.6201,1.6203,1.6312,1.6329,1.6379,1.6495,1.6519,1.6559,1.6514,1.6789,1.6794,1.6798,1.6781,1.6786,1.679,0,0,0,0,0,1.574,1.5814,1.5828,1.5858,1.6025,1.6137,1.6159,1.6215,1.6204,1.6243,1.6306,1.6325,1.6538,1.6505,1.6533,1.6576,1.6787,1.6792,1.6797,1.6779,1.6785,1.679,0,0,0,0,0,0,1.5706,1.583,1.5847,1.5959,1.6037,1.6145,1.6196,1.622,1.6302,1.6301,1.6367,1.6391,1.6493,1.6546,1.6507,1.6677,1.6663,1.6673,1.6639,1.6646,1.665,1.6635,1.6522,0,0,0,0,0,1.5711,1.5793,1.5896,1.5985,1.6024,1.6103,1.6154,1.6191,1.6274,1.6307,1.6378,1.6457,1.6542,1.6597,1.668,1.6789,1.6813,1.6832,1.6836,1.6839,1.6848,1.6909,1.6919,1.6816,1.6816,1.6816,0,0,1.5724,1.5802,1.5849,1.598,1.6045,1.6127,1.6131,1.6217,1.6278,1.632,1.6425,1.648,1.6573,1.6681,1.6732,1.6727,1.6882,1.6846,1.6848,1.6855,1.6915,1.6925,1.6933,1.682,1.6819,1.6819,0,0,1.5788,1.5855,1.5937,1.6002,1.61,1.6152,1.6171,1.6276,1.6314,1.642,1.6453,1.6526,1.6671,1.6736,1.6788,1.6876,1.6897,1.6901,1.6924,1.6983,1.6991,1.6998,1.7029,1.704,1.6909,1.6909,1.6909,0,1.5791,1.5917,1.5976,1.6061,1.6117,1.6159,1.6241,1.6301,1.6421,1.6459,1.6452,1.6634,1.67,1.6823,1.6845,1.6885,1.6909,1.6889,1.6985,1.6993,1.7001,1.7031,1.7043,1.6909,1.6909,1.6909,1.6909,0,1.5915,1.6001,1.6055,1.6171,1.6233,1.6316,1.6387,1.6443,1.6473,1.6526,1.6633,1.6713,1.6814,1.6846,1.6877,1.6973,1.6968,1.6972,1.6959,1.701,1.7039,1.7051,1.6909,1.6909,1.6909,1.6909,0,0,1.5965,1.6111,1.613,1.6183,1.6293,1.6361,1.6445,1.6543,1.659,1.6671,1.6743,1.6864,1.6869,1.6927,1.6966,1.7017,1.7081,1.7016,1.7019,1.7025,1.7192,1.7188,1.7201,1.7095,1.7098,1.71,1.7184,0,1.6044,1.6197,1.6252,1.6378,1.6458,1.6498,1.6571,1.6646,1.6697,1.6772,1.6828,1.6913,1.6912,1.6948,1.7001,1.7062,1.7116,1.7057,1.7163,1.7166,1.7139,1.7217,1.7213,1.7289,1.7196,1.7199,1.72,0,1.6156,1.6239,1.6373,1.6473,1.6508,1.6573,1.6667,1.6738,1.6824,1.6857,1.6922,1.6957,1.7046,1.7027,1.7151,1.7109,1.7156,1.7192,1.7196,1.7209,1.7186,1.7231,1.7315,1.7326,1.7219,1.7217,1.7216,0,1.6179,1.6324,1.6422,1.6466,1.6585,1.663,1.6681,1.6765,1.6821,1.6902,1.6939,1.7029,1.7079,1.7149,1.7206,1.7187,1.7324,1.731,1.7354,1.7353,1.7382,1.738,1.7475,1.7411,1.7411,1.7411,1.741,0,1.6261,1.6342,1.6434,1.6495,1.6586,1.6647,1.6735,1.6789,1.6863,1.6934,1.6974,1.704,1.7112,1.7187,1.7233,1.7328,1.735,1.7379,1.7391,1.7376,1.7372,1.7408,1.7404,1.7414,1.7413,1.7413,1.7412,0,1.6303,1.6368,1.6478,1.6582,1.6609,1.6672,1.676,1.682,1.6872,1.6962,1.6986,1.7068,1.7158,1.7223,1.7339,1.737,1.7472,1.7483,1.7443,1.7449,1.7489,1.7485,1.7611,1.7631,1.7553,1.7554,1.7554,0,1.6351,1.6414,1.6524,1.6575,1.6626,1.6707,1.6764,1.6826,1.6883,1.6985,1.7032,1.7126,1.7204,1.7346,1.7415,1.7505,1.7518,1.7556,1.7532,1.7515,1.7519,1.7515,1.7521,1.756,1.756,1.7561,1.7561,0,1.643,1.6459,1.6539,1.6631,1.6697,1.6772,1.6847,1.6886,1.6961,1.7023,1.7116,1.7177,1.7295,1.7387,1.7483,1.7535,1.7561,1.7568,1.7583,1.7569,1.7544,1.7558,1.7453,1.7565,1.7565,1.7564,1.7564,1.7564,1.6477,1.6534,1.662,1.6708,1.6771,1.684,1.6902,1.6961,1.704,1.7142,1.7173,1.7269,1.7353,1.7484,1.7537,1.7613,1.7611,1.7633,1.7639,1.7643,1.7643,1.7531,1.7631,1.7631,1.7631,1.7631,1.7631,0,1.6558,1.6615,1.6695,1.6799,1.6868,1.6886,1.6969,1.7026,1.711,1.7186,1.7261,1.7367,1.7456,1.7533,1.7625,1.7671,1.7685,1.7693,1.769,1.7702,1.7639,1.7617,1.768,1.768,1.768,1.768,1.768,1.768,1.6608,1.6706,1.6745,1.6874,1.6931,1.7025,1.7072,1.7135,1.7196,1.7313,1.7387,1.7436,1.7512,1.761,1.7692,1.7712,1.7744,1.7749,1.7772,1.7712,1.7706,1.7701,1.768,1.7756,1.7756,1.7829,1.7829,1.783]},{"header":{"parameterUnit":"m.s-1","parameterCategory":1,"la1":30.2991,"la2":30.254,"lo1":-89.0895,"lo2":-89.0444,"dy":0.0017,"dx":0.0017,"nx":28,"ny":28,"refTime":"2025-06-13T09:00:00:Z","depth":0,"parameterNumber":3,"parameterNumberName":"V-component_of_WINDS"},"data":[0,0,0,0,0,0,0,0,0,0,0,0,0,0,0,0,0,0,0,0,0,0,0,0,0,0,0,0,0,0,0,0,0,0,0,0,0,0,0,0,0,0,0,0,0,0,0,0,0,0,0,0,0,0,0,0,0,0,2.8945,2.8947,0,2.9091,2.9092,2.9094,2.9086,2.9084,2.9082,2.908,2.9228,2.9234,2.924,0,0,0,0,0,0,0,0,0,0,0,0,0,2.8657,2.8662,2.8945,2.8947,2.8949,2.9091,2.9093,2.9095,2.9086,2.9084,2.9081,2.9079,2.9226,2.9233,2.9241,0,0,0,0,0,0,0,0,0,0,0,0,0,2.879,2.8664,2.8945,2.8961,2.8964,2.909,2.9093,2.9095,2.9087,2.9084,2.908,2.9077,2.9224,2.9233,2.9242,2.936,0,0,2.9269,2.9273,0,0,0,0,0,0,0,0,2.8783,2.8801,2.8957,2.8961,2.8964,2.9067,2.9046,2.9184,2.9088,2.904,2.908,2.9076,2.9177,2.919,2.9224,2.9367,2.9373,2.927,2.9275,2.9279,2.9281,0,0,0,0,0,0,0,2.8773,2.8795,2.9003,2.8959,2.8964,2.8961,2.8977,2.9072,2.9125,2.9044,2.9044,2.9061,2.9178,2.9215,2.9227,2.9375,2.9269,2.9277,2.9283,2.9286,2.962,2.9623,0,0,0,0,0,0,2.8761,2.8787,2.8998,2.9007,2.8864,2.8969,2.8986,2.9037,2.9124,2.9134,2.9064,2.906,2.9202,2.9217,2.9233,2.9376,2.9279,2.9287,2.9292,2.9616,2.9621,2.9625,0,0,0,0,0,0,2.8755,2.878,2.8992,2.8897,2.8924,2.8977,2.9034,2.9042,2.9079,2.9139,2.9148,2.9092,2.92,2.922,2.9328,2.9381,2.9291,2.9299,2.9612,2.9618,2.9623,2.9664,0,0,0,0,0,0,2.8746,2.8777,2.8824,2.8898,2.8929,2.9086,2.9038,2.9047,2.9094,2.9091,2.9168,2.9177,2.9199,2.9315,2.9337,2.9392,2.9306,2.9608,2.9615,2.9621,2.9658,2.967,2.968,0,0,0,0,0,2.8736,2.883,2.8826,2.8852,2.8988,2.9089,2.9106,2.913,2.9098,2.9145,2.9183,2.9175,2.9371,2.9326,2.935,2.9409,2.9605,2.9613,2.962,2.9653,2.9668,2.968,0,0,0,0,0,0,2.8761,2.884,2.8837,2.8958,2.9016,2.9087,2.9147,2.9145,2.9214,2.9208,2.9234,2.9251,2.9359,2.9394,2.9342,2.9527,2.9484,2.9497,2.95,2.9514,2.9525,2.9515,2.9313,0,0,0,0,0,2.878,2.8856,2.8921,2.9021,2.9051,2.9094,2.9139,2.9151,2.9213,2.9238,2.9284,2.9344,2.9419,2.9469,2.9541,2.9662,2.9678,2.9714,2.9725,2.9734,2.9746,2.9811,2.9828,2.9651,2.9651,2.965,0,0,2.8822,2.8874,2.8921,2.9027,2.9075,2.9152,2.9115,2.9199,2.9256,2.9251,2.9355,2.9391,2.9459,2.9574,2.9627,2.9607,2.9798,2.9744,2.9751,2.9758,2.9821,2.9837,2.9852,2.9656,2.9655,2.9654,0,0,2.8937,2.8984,2.9072,2.912,2.9191,2.9219,2.9239,2.931,2.9334,2.9439,2.9436,2.9504,2.9633,2.9682,2.9723,2.9853,2.9848,2.9876,2.9934,2.9997,3.0011,3.0024,3.007,3.0086,2.9887,2.9887,2.9887,0,2.8979,2.9096,2.9118,2.9202,2.9248,2.9246,2.9335,2.938,2.9471,2.9503,2.9479,2.964,2.9686,2.9811,2.9843,2.9877,2.9901,2.9868,3.0007,3.002,3.0032,3.0076,3.0093,2.989,2.9889,2.9889,2.9889,0,2.9144,2.9225,2.9287,2.9375,2.9428,2.9514,2.9548,2.9599,2.9606,2.9635,2.9741,2.9796,2.9879,2.9909,2.9917,3.0035,3.0021,3.0002,2.9959,3.0052,3.0093,3.011,2.9894,2.9893,2.9892,2.9891,0,0,2.9281,2.9378,2.94,2.9439,2.9517,2.9579,2.9664,2.9745,2.9788,2.985,2.9921,3.0029,3.0012,3.0059,3.0072,3.0127,3.0226,3.0102,3.0104,3.0123,3.0358,3.0372,3.0391,3.0222,3.0225,3.0228,3.0352,0,2.9404,2.9555,2.9575,2.9709,2.9783,2.978,2.9854,2.9909,2.9938,3.0004,3.0036,3.0112,3.0083,3.0111,3.0166,3.0202,3.0273,3.0193,3.0288,3.0291,3.0272,3.0413,3.0429,3.0544,3.0368,3.0371,3.0373,0,2.9568,2.9634,2.9774,2.9839,2.9871,2.9937,3.0012,3.0075,3.0137,3.0154,3.0205,3.0211,3.0297,3.025,3.0369,3.0314,3.0353,3.0376,3.0381,3.0392,3.0339,3.0428,3.0581,3.0598,3.0399,3.0397,3.0395,0,2.9653,2.9777,2.9877,2.991,2.9989,3.0035,3.007,3.0128,3.0175,3.0239,3.0269,3.0343,3.0384,3.044,3.0465,3.0429,3.0582,3.0537,3.0599,3.0598,3.0632,3.063,3.0794,3.0657,3.0656,3.0656,3.0656,0,2.9788,2.9874,2.9916,2.9977,3.0073,3.0095,3.0189,3.0222,3.0273,3.034,3.0342,3.0405,3.0433,3.05,3.052,3.0615,3.0633,3.0649,3.0653,3.0649,3.0647,3.0676,3.0669,3.0661,3.066,3.0659,3.0658,0,2.9901,2.9932,3.0041,3.0105,3.0124,3.0191,3.0246,3.0305,3.0332,3.0417,3.0438,3.0481,3.056,3.059,3.0686,3.0699,3.0808,3.0806,3.0788,3.0789,3.0849,3.0843,3.1038,3.1064,3.0909,3.091,3.0911,0,2.9986,3.0052,3.0123,3.0168,3.0204,3.0276,3.0323,3.0347,3.0395,3.0469,3.0519,3.0596,3.066,3.0786,3.0825,3.0898,3.0898,3.0961,3.0909,3.0902,3.0899,3.0895,3.0901,3.0971,3.0972,3.0974,3.0975,0,3.0132,3.0144,3.0212,3.0285,3.034,3.0399,3.0456,3.0492,3.0524,3.0578,3.0658,3.0708,3.0805,3.0882,3.0956,3.0991,3.0989,3.099,3.1009,3.1006,3.0992,3.1,3.0815,3.0986,3.0985,3.0984,3.0984,3.0983,3.0234,3.0292,3.035,3.0425,3.047,3.0522,3.058,3.0614,3.0681,3.0762,3.0771,3.0857,3.0915,3.1014,3.1052,3.1119,3.1102,3.1128,3.1135,3.1141,3.1145,3.0981,3.1132,3.1132,3.1132,3.1132,3.1131,0,3.038,3.0417,3.0486,3.0565,3.0623,3.0614,3.0676,3.0726,3.0801,3.0855,3.0917,3.1008,3.1082,3.1126,3.1201,3.1246,3.1246,3.1264,3.1262,3.1269,3.1156,3.1133,3.1263,3.1263,3.1263,3.1263,3.1262,3.1262,3.0464,3.0561,3.0579,3.0697,3.0733,3.0817,3.0853,3.0901,3.0944,3.1046,3.1107,3.1135,3.1185,3.1262,3.133,3.1341,3.1368,3.1388,3.1397,3.1291,3.1278,3.1265,3.1243,3.1393,3.1394,3.1505,3.1506,3.1507]}]]